Time,TemperatureF,DewpointF,PressureIn,WindDirection,WindDirectionDegrees,WindSpeedMPH,WindSpeedGustMPH,Humidity,HourlyPrecipIn,Conditions,Clouds,dailyrainin,SoftwareType,DateUTC
2013-09-14 00:12:00,61.0,59.0,29.89,NW,321,0.0,0.0,92,0.00,,,0.00,,2013-09-14 07:12:00,
2013-09-14 00:21:00,61.0,59.0,29.89,WSW,258,0.0,1.0,92,0.00,,,0.00,,2013-09-14 07:21:00,
2013-09-14 00:42:00,61.0,59.0,29.89,SW,222,0.0,0.0,92,0.00,,,0.00,,2013-09-14 07:42:00,
2013-09-14 00:52:00,61.0,59.0,29.89,SW,222,0.0,0.0,92,0.00,,,0.00,,2013-09-14 07:52:00,
2013-09-14 01:12:00,61.0,59.0,29.89,SW,222,0.0,0.0,93,0.00,,,0.00,,2013-09-14 08:12:00,
2013-09-14 01:21:00,60.0,58.0,29.89,SW,236,0.0,0.0,92,0.00,,,0.00,,2013-09-14 08:21:00,
2013-09-14 01:42:00,60.0,58.0,29.89,WNW,286,0.0,1.0,93,0.00,,,0.00,,2013-09-14 08:42:00,
2013-09-14 01:52:00,60.0,58.0,29.88,WSW,248,0.0,0.0,93,0.00,,,0.00,,2013-09-14 08:52:00,
2013-09-14 02:12:00,60.0,58.0,29.88,SW,218,0.0,0.0,93,0.00,,,0.00,,2013-09-14 09:12:00,
2013-09-14 02:21:00,60.0,58.0,29.88,SW,214,0.0,0.0,93,0.00,,,0.00,,2013-09-14 09:21:00,
2013-09-14 02:43:00,60.0,58.0,29.88,SSW,193,0.0,0.0,93,0.00,,,0.00,,2013-09-14 09:43:00,
2013-09-14 02:53:00,60.0,58.0,29.88,SSE,167,0.0,0.0,93,0.00,,,0.00,,2013-09-14 09:53:00,
2013-09-14 03:12:00,60.0,58.0,29.88,SE,143,0.0,0.0,93,0.00,,,0.00,,2013-09-14 10:12:00,
2013-09-14 03:23:00,60.0,58.0,29.88,SE,140,0.0,0.0,94,0.00,,,0.00,,2013-09-14 10:23:00,
2013-09-14 03:52:00,60.0,58.0,29.88,SW,223,0.0,0.0,94,0.00,,,0.00,,2013-09-14 10:52:00,
2013-09-14 04:12:00,60.0,58.0,29.88,SSW,210,0.0,0.0,94,0.00,,,0.00,,2013-09-14 11:12:00,
2013-09-14 04:22:00,60.0,58.0,29.87,SW,214,0.0,0.0,94,0.00,,,0.00,,2013-09-14 11:22:00,
2013-09-14 04:42:00,60.0,58.0,29.87,SSW,199,0.0,0.0,94,0.00,,,0.00,,2013-09-14 11:42:00,
2013-09-14 04:52:00,60.0,58.0,29.87,SSW,198,0.0,0.0,94,0.00,,,0.00,,2013-09-14 11:52:00,
2013-09-14 05:12:00,59.0,57.0,29.86,SE,144,0.0,0.0,94,0.00,,,0.00,,2013-09-14 12:12:00,
2013-09-14 05:22:00,59.0,57.0,29.86,SSE,148,0.0,0.0,94,0.00,,,0.00,,2013-09-14 12:22:00,
2013-09-14 05:52:00,59.0,58.0,29.86,SE,134,0.0,0.0,95,0.00,,,0.00,,2013-09-14 12:52:00,
2013-09-14 06:12:00,59.0,58.0,29.85,SE,132,0.0,0.0,95,0.00,,,0.00,,2013-09-14 13:12:00,
2013-09-14 06:21:00,59.0,58.0,29.86,SE,132,0.0,0.0,95,0.00,,,0.00,,2013-09-14 13:21:00,
2013-09-14 06:42:00,59.0,58.0,29.86,SE,130,0.0,0.0,95,0.00,,,0.00,,2013-09-14 13:42:00,
2013-09-14 06:52:00,59.0,58.0,29.86,SE,132,0.0,0.0,95,0.00,,,0.00,,2013-09-14 13:52:00,
2013-09-14 07:11:00,59.0,58.0,29.86,SE,130,0.0,0.0,95,0.00,,,0.00,,2013-09-14 14:11:00,
2013-09-14 07:22:00,59.0,58.0,29.86,ESE,119,0.0,0.0,95,0.00,,,0.00,,2013-09-14 14:22:00,
2013-09-14 07:42:00,59.0,58.0,29.86,NE,51,0.0,0.0,95,0.00,,,0.00,,2013-09-14 14:42:00,
2013-09-14 07:52:00,59.0,58.0,29.86,ENE,58,0.0,0.0,95,0.00,,,0.00,,2013-09-14 14:52:00,
2013-09-14 08:11:00,59.0,58.0,29.86,NNE,25,0.0,0.0,95,0.00,,,0.00,,2013-09-14 15:11:00,
2013-09-14 08:22:00,59.0,58.0,29.86,NNW,340,0.0,0.0,95,0.00,,,0.00,,2013-09-14 15:22:00,
2013-09-14 08:43:00,59.0,58.0,29.86,SE,140,0.0,1.0,95,0.00,,,0.00,,2013-09-14 15:43:00,
2013-09-14 08:53:00,59.0,58.0,29.86,NNW,333,0.0,0.0,95,0.00,,,0.00,,2013-09-14 15:53:00,
2013-09-14 09:13:00,59.0,58.0,29.86,NNW,344,0.0,0.0,95,0.00,,,0.00,,2013-09-14 16:13:00,
2013-09-14 09:23:00,59.0,58.0,29.86,ENE,65,0.0,0.0,95,0.00,,,0.00,,2013-09-14 16:23:00,
2013-09-14 09:44:00,60.0,59.0,29.86,ENE,59,0.0,0.0,95,0.00,,,0.00,,2013-09-14 16:44:00,
2013-09-14 09:54:00,60.0,59.0,29.85,SSE,165,1.0,4.0,95,0.00,,,0.00,,2013-09-14 16:54:00,
2013-09-14 10:11:00,60.0,59.0,29.85,SE,132,0.0,4.0,95,0.00,,,0.00,,2013-09-14 17:11:00,
2013-09-14 10:23:00,61.0,60.0,29.85,ENE,70,0.0,2.0,95,0.00,,,0.00,,2013-09-14 17:23:00,
2013-09-14 10:43:00,61.0,59.0,29.85,East,86,0.0,2.0,94,0.00,,,0.00,,2013-09-14 17:43:00,
2013-09-14 10:53:00,61.0,59.0,29.85,WNW,298,0.0,3.0,94,0.00,,,0.00,,2013-09-14 17:53:00,
2013-09-14 11:12:00,61.0,59.0,29.85,WNW,301,2.0,4.0,94,0.00,,,0.00,,2013-09-14 18:12:00,
2013-09-14 11:21:00,61.0,59.0,29.85,WNW,299,1.0,7.0,94,0.00,,,0.00,,2013-09-14 18:21:00,
2013-09-14 11:43:00,61.0,59.0,29.85,WNW,298,2.0,6.0,94,0.00,,,0.00,,2013-09-14 18:43:00,
2013-09-14 11:52:00,61.0,59.0,29.85,NW,317,2.0,7.0,94,0.00,,,0.00,,2013-09-14 18:52:00,
2013-09-14 12:11:00,61.0,59.0,29.84,WNW,296,2.0,9.0,94,0.00,,,0.00,,2013-09-14 19:11:00,
2013-09-14 12:22:00,61.0,59.0,29.83,NNW,338,3.0,6.0,94,0.00,,,0.00,,2013-09-14 19:22:00,
2013-09-14 12:42:00,61.0,59.0,29.83,WNW,297,4.0,10.0,94,0.00,,,0.00,,2013-09-14 19:42:00,
2013-09-14 12:52:00,62.0,60.0,29.83,NW,311,4.0,9.0,94,0.00,,,0.00,,2013-09-14 19:52:00,
2013-09-14 13:12:00,62.0,60.0,29.82,NW,304,4.0,10.0,93,0.00,,,0.00,,2013-09-14 20:12:00,
2013-09-14 13:22:00,62.0,60.0,29.83,WNW,282,2.0,8.0,92,0.00,,,0.00,,2013-09-14 20:22:00,
2013-09-14 13:42:00,62.0,60.0,29.83,NNW,328,2.0,6.0,93,0.00,,,0.00,,2013-09-14 20:42:00,
2013-09-14 13:52:00,62.0,60.0,29.83,SW,225,1.0,5.0,93,0.00,,,0.00,,2013-09-14 20:52:00,
2013-09-14 14:11:00,62.0,60.0,29.82,WSW,238,1.0,6.0,92,0.00,,,0.00,,2013-09-14 21:11:00,
2013-09-14 14:22:00,62.0,60.0,29.82,West,279,2.0,7.0,92,0.00,,,0.00,,2013-09-14 21:22:00,
2013-09-14 14:44:00,62.0,60.0,29.82,SSW,211,2.0,5.0,92,0.00,,,0.00,,2013-09-14 21:44:00,
2013-09-14 14:54:00,62.0,60.0,29.82,SW,222,3.0,7.0,92,0.00,,,0.00,,2013-09-14 21:54:00,
2013-09-14 15:13:00,62.0,60.0,29.82,WSW,254,3.0,6.0,92,0.00,,,0.00,,2013-09-14 22:13:00,
2013-09-14 15:24:00,62.0,60.0,29.82,SW,234,3.0,7.0,92,0.00,,,0.00,,2013-09-14 22:24:00,
2013-09-14 15:42:00,62.0,60.0,29.81,SSW,196,3.0,6.0,92,0.00,,,0.00,,2013-09-14 22:42:00,
2013-09-14 15:53:00,62.0,60.0,29.81,WSW,249,3.0,5.0,92,0.00,,,0.00,,2013-09-14 22:53:00,
2013-09-14 16:11:00,62.0,60.0,29.80,WSW,256,2.0,6.0,92,0.00,,,0.00,,2013-09-14 23:11:00,
2013-09-14 16:23:00,61.0,59.0,29.80,West,277,2.0,5.0,92,0.00,,,0.00,,2013-09-14 23:23:00,
2013-09-14 16:42:00,61.0,59.0,29.80,West,259,1.0,4.0,93,0.00,,,0.00,,2013-09-14 23:42:00,
2013-09-14 16:53:00,61.0,59.0,29.80,WSW,237,2.0,5.0,93,0.00,,,0.00,,2013-09-14 23:53:00,
2013-09-14 17:12:00,61.0,59.0,29.81,SW,234,0.0,4.0,94,0.00,,,0.00,,2013-09-15 00:12:00,
2013-09-14 17:22:00,60.0,58.0,29.81,WSW,254,2.0,5.0,94,0.00,,,0.00,,2013-09-15 00:22:00,
2013-09-14 17:42:00,60.0,59.0,29.80,WSW,240,1.0,4.0,95,0.00,,,0.00,,2013-09-15 00:42:00,
2013-09-14 17:53:00,60.0,59.0,29.80,South,176,0.0,4.0,95,0.00,,,0.00,,2013-09-15 00:53:00,
2013-09-14 18:11:00,60.0,59.0,29.80,WNW,300,0.0,3.0,95,0.00,,,0.00,,2013-09-15 01:11:00,
2013-09-14 18:22:00,60.0,59.0,29.80,South,177,0.0,0.0,95,0.00,,,0.00,,2013-09-15 01:22:00,
2013-09-14 18:42:00,61.0,60.0,29.80,South,177,0.0,0.0,95,0.00,,,0.00,,2013-09-15 01:42:00,
2013-09-14 18:52:00,60.0,59.0,29.80,SW,217,0.0,0.0,95,0.00,,,0.00,,2013-09-15 01:52:00,
2013-09-14 19:12:00,60.0,59.0,29.80,SSW,212,0.0,0.0,95,0.00,,,0.00,,2013-09-15 02:12:00,
2013-09-14 19:22:00,60.0,59.0,29.80,SE,146,0.0,0.0,95,0.00,,,0.00,,2013-09-15 02:22:00,
2013-09-14 19:42:00,60.0,59.0,29.80,South,181,0.0,0.0,96,0.00,,,0.00,,2013-09-15 02:42:00,
2013-09-14 19:52:00,60.0,59.0,29.80,SE,140,0.0,0.0,96,0.00,,,0.00,,2013-09-15 02:52:00,
2013-09-14 20:11:00,60.0,59.0,29.80,SSE,165,0.0,0.0,96,0.00,,,0.00,,2013-09-15 03:11:00,
2013-09-14 20:21:00,60.0,59.0,29.80,South,182,0.0,0.0,96,0.00,,,0.00,,2013-09-15 03:21:00,
2013-09-14 20:44:00,60.0,59.0,29.80,SE,146,0.0,0.0,96,0.00,,,0.00,,2013-09-15 03:44:00,
2013-09-14 20:55:00,60.0,59.0,29.80,SSW,209,0.0,6.0,96,0.00,,,0.00,,2013-09-15 03:55:00,
2013-09-14 21:02:00,-999.0,-99.9,29.81,SSW,209,0.0,0.0,-999,-99.99,,,-99.99,,2013-09-15 04:02:00,
2013-09-14 21:13:00,60.0,59.0,29.81,SSW,209,0.0,0.0,96,0.00,,,0.00,,2013-09-15 04:13:00,
2013-09-14 21:24:00,60.0,59.0,29.81,SSW,209,0.0,0.0,96,0.00,,,0.00,,2013-09-15 04:24:00,
2013-09-14 21:43:00,60.0,59.0,29.82,SSW,209,0.0,0.0,96,0.00,,,0.00,,2013-09-15 04:43:00,
2013-09-14 21:54:00,59.0,58.0,29.82,SSW,209,0.0,0.0,96,0.00,,,0.00,,2013-09-15 04:54:00,
2013-09-14 22:13:00,60.0,59.0,29.81,SSW,209,0.0,0.0,96,0.00,,,0.00,,2013-09-15 05:13:00,
2013-09-14 22:22:00,60.0,59.0,29.81,SSW,209,0.0,0.0,96,0.00,,,0.00,,2013-09-15 05:22:00,
2013-09-14 22:42:00,60.0,59.0,29.81,SSW,209,0.0,0.0,96,0.00,,,0.00,,2013-09-15 05:42:00,
2013-09-14 22:52:00,60.0,59.0,29.81,SSW,209,0.0,0.0,96,0.00,,,0.00,,2013-09-15 05:52:00,
2013-09-14 23:12:00,60.0,59.0,29.81,SSW,209,0.0,0.0,97,0.00,,,0.00,,2013-09-15 06:12:00,
2013-09-14 23:21:00,60.0,59.0,29.81,SSW,209,0.0,0.0,97,0.00,,,0.00,,2013-09-15 06:21:00,
2013-09-14 23:42:00,60.0,59.0,29.81,SSW,209,0.0,0.0,97,0.00,,,0.00,,2013-09-15 06:42:00,
2013-09-14 23:52:00,59.0,58.0,29.81,SSW,209,0.0,0.0,96,0.00,,,0.00,,2013-09-15 06:52:00,